timestamp,surface_pressure_avg,surface_temp_avg,battery_voltage,lat,long
2020-05-11 00:09:01+00:00,314.5779,4.8,13.44,47.84626,-54.09684
2020-05-11 00:19:01+00:00,321.3796,4.8,13.13,47.84626,-54.09684
2020-05-11 00:29:01+00:00,328.9379,4.8,13.13,47.84626,-54.09684
2020-05-11 00:39:01+00:00,341.283,4.8,13.13,47.84626,-54.09684
2020-05-11 00:49:01+00:00,347.1564,4.7,13.13,47.84626,-54.09684
2020-05-11 00:59:01+00:00,352.9647,4.5,13.13,47.84626,-54.09684
2020-05-11 01:09:01+00:00,360.2962,4.43,13.13,47.84626,-54.09684
2020-05-11 01:19:01+00:00,367.3546,4.5,12.81,47.84626,-54.09684
2020-05-11 01:29:01+00:00,371.56300000000016,4.3,12.81,47.84626,-54.09684
2020-05-11 01:39:01+00:00,370.6913,4.37,12.81,47.84626,-54.09684
2020-05-11 01:49:01+00:00,369.4562,4.4,12.81,47.84626,-54.09684
2020-05-11 01:59:01+00:00,365.7413,4.47,12.81,47.84626,-54.09684
2020-05-11 02:09:01+00:00,365.1013,4.44,12.81,47.84626,-54.09684
2020-05-11 02:19:01+00:00,370.533,4.48,12.65,47.84626,-54.09684
2020-05-11 02:29:01+00:00,374.11300000000006,4.46,12.65,47.84626,-54.09684
2020-05-11 02:39:01+00:00,376.0646,4.4,12.65,47.84626,-54.09684
2020-05-11 02:49:01+00:00,373.4979,4.4,12.65,47.84626,-54.09684
2020-05-11 02:59:01+00:00,369.6713,4.4,12.65,47.84626,-54.09684
2020-05-11 03:09:01+00:00,367.2646,4.41,12.65,47.84626,-54.09684
2020-05-11 03:19:01+00:00,366.1296,4.47,12.65,47.84626,-54.09684
2020-05-11 03:29:01+00:00,362.4796,4.51,12.65,47.84626,-54.09684
2020-05-11 03:39:01+00:00,357.5096,4.68,12.65,47.84626,-54.09684
2020-05-11 03:49:01+00:00,356.2279,4.63,12.65,47.84626,-54.09684
2020-05-11 03:59:01+00:00,356.3479,4.53,12.65,47.84626,-54.09684
2020-05-11 04:09:01+00:00,346.32300000000015,4.38,12.65,47.84626,-54.09684
2020-05-11 04:19:01+00:00,335.293,4.38,12.65,47.84626,-54.09684
2020-05-11 04:29:01+00:00,327.8396,4.5,12.65,47.84626,-54.09684
2020-05-11 04:39:01+00:00,326.478,4.45,12.65,47.84626,-54.09684
2020-05-11 04:49:01+00:00,315.7931,4.33,12.65,47.84626,-54.09684
2020-05-11 04:59:01+00:00,296.638,4.5,12.65,47.84626,-54.09684
2020-05-11 05:09:01+00:00,292.3547,4.67,12.65,47.84626,-54.09684
2020-05-11 05:19:01+00:00,289.3196,4.6,12.65,47.84626,-54.09684
2020-05-11 05:29:01+00:00,278.2281,4.25,12.65,47.84626,-54.09684
2020-05-11 05:39:01+00:00,266.5364,4.23,12.65,47.84626,-54.09684
2020-05-11 05:49:01+00:00,262.683,4.42,12.65,47.84626,-54.09684
2020-05-11 05:59:01+00:00,254.1547,4.5,12.65,47.84626,-54.09684
2020-05-11 06:09:01+00:00,236.9164,4.58,12.65,47.84626,-54.09684
2020-05-11 06:19:01+00:00,226.3565,4.6,12.65,47.84626,-54.09684
2020-05-11 06:29:01+00:00,221.6881,4.7,12.65,47.84626,-54.09684
2020-05-11 06:39:01+00:00,215.0898,4.7,12.65,47.84626,-54.09684
2020-05-11 06:49:01+00:00,208.0964,4.8,12.65,47.84626,-54.09684
2020-05-11 06:59:01+00:00,200.3165,4.8,12.65,47.84626,-54.09684
2020-05-11 07:09:01+00:00,195.7931,4.8,12.65,47.84626,-54.09684
2020-05-11 07:19:01+00:00,198.1148,4.7,12.57,47.84626,-54.09684
2020-05-11 07:29:01+00:00,194.8014,4.75,12.57,47.84626,-54.09684
2020-05-11 07:39:01+00:00,187.1748,4.77,12.57,47.84626,-54.09684
2020-05-11 07:49:01+00:00,185.6148,4.78,12.57,47.84626,-54.09684
2020-05-11 07:59:01+00:00,186.6398,4.8,12.57,47.84626,-54.09684
2020-05-11 08:09:01+00:00,186.6815,4.8,12.57,47.84626,-54.09684
2020-05-11 08:19:01+00:00,186.5598,4.8,12.57,47.84626,-54.09684
2020-05-11 08:29:01+00:00,185.8915,4.8,12.57,47.84626,-54.09684
2020-05-11 08:39:01+00:00,188.1881,4.8,12.57,47.84626,-54.09684
2020-05-11 08:49:01+00:00,191.3998,4.8,12.57,47.84626,-54.09684
2020-05-11 08:59:01+00:00,194.8081,4.8,12.57,47.84626,-54.09684
2020-05-11 09:09:01+00:00,199.5714,4.8,12.57,47.84626,-54.09684
2020-05-11 09:19:01+00:00,202.7998,4.8,12.73,47.84626,-54.09684
2020-05-11 09:29:01+00:00,205.9881,4.8,12.73,47.84626,-54.09684
2020-05-11 09:39:01+00:00,206.5648,4.8,12.73,47.84626,-54.09684
2020-05-11 09:49:01+00:00,209.3248,4.8,12.73,47.84626,-54.09684
2020-05-11 09:59:01+00:00,212.4365,4.8,12.73,47.84626,-54.09684
2020-05-11 10:09:01+00:00,214.4048,4.81,12.73,47.84626,-54.09684
2020-05-11 10:19:01+00:00,217.8164,4.81,13.05,47.84626,-54.09684
2020-05-11 10:29:01+00:00,220.5631,4.8,13.05,47.84626,-54.09684
2020-05-11 10:39:01+00:00,223.1764,4.8,13.05,47.84626,-54.09684
2020-05-11 10:49:01+00:00,228.1697,4.8,13.05,47.84626,-54.09684
2020-05-11 10:59:01+00:00,236.0732,4.8,13.05,47.84626,-54.09684
2020-05-11 11:09:01+00:00,240.9781,4.8,13.05,47.84626,-54.09684
2020-05-11 11:19:01+00:00,244.2414,4.8,13.53,47.84626,-54.09684
2020-05-11 11:29:01+00:00,251.4264,4.8,13.53,47.84626,-54.09684
2020-05-11 11:39:01+00:00,257.8214,4.8,13.53,47.84626,-54.09684
2020-05-11 11:49:01+00:00,259.0364,4.8,13.53,47.84626,-54.09684
2020-05-11 11:59:01+00:00,263.8831,4.8,13.53,47.84626,-54.09684
2020-05-11 12:09:01+00:00,271.6931,4.8,13.53,47.84626,-54.09684
2020-05-11 12:19:01+00:00,276.2147,4.8,14.4,47.84626,-54.09684
2020-05-11 12:29:01+00:00,280.9847,4.8,14.4,47.84626,-54.09684
2020-05-11 12:39:01+00:00,287.9264,4.8,14.4,47.84626,-54.09684
2020-05-11 12:49:01+00:00,297.4964,4.7,14.4,47.84626,-54.09684
2020-05-11 12:59:01+00:00,304.2563,4.7,14.4,47.84626,-54.09684
2020-05-11 13:09:01+00:00,307.6013,4.73,14.4,47.84626,-54.09684
2020-05-11 13:19:01+00:00,313.6964,4.6,14.48,47.84626,-54.09684
2020-05-11 13:29:01+00:00,317.6513,4.68,14.48,47.84626,-54.09684
2020-05-11 13:39:01+00:00,321.1113,4.69,14.48,47.84626,-54.09684
2020-05-11 13:49:01+00:00,324.548,4.66,14.48,47.84626,-54.09684
2020-05-11 13:59:01+00:00,325.618,4.68,14.48,47.84626,-54.09684
2020-05-11 14:09:01+00:00,326.9613,4.66,14.48,47.84626,-54.09684
2020-05-11 14:19:01+00:00,332.6230000000001,4.69,14.48,47.84626,-54.09684
2020-05-11 14:29:01+00:00,335.3412,4.6,14.48,47.84626,-54.09684
2020-05-11 14:39:01+00:00,335.478,4.61,14.48,47.84626,-54.09684
2020-05-11 14:49:01+00:00,338.2546,4.7,14.48,47.84626,-54.09684
2020-05-11 14:59:01+00:00,340.8962,4.7,14.48,47.84626,-54.09684
2020-05-11 15:09:01+00:00,336.9579,4.73,14.48,47.84626,-54.09684
2020-05-11 15:19:01+00:00,334.2896,4.8,14.32,47.84626,-54.09684
2020-05-11 15:29:01+00:00,334.1396,4.8,14.32,47.84626,-54.09684
2020-05-11 15:39:01+00:00,331.8879,4.7,14.32,47.84626,-54.09684
2020-05-11 15:49:01+00:00,328.3047,4.7,14.32,47.84626,-54.09684
2020-05-11 15:59:01+00:00,327.8529,4.8,14.32,47.84626,-54.09684
2020-05-11 16:09:01+00:00,331.403,4.8,14.32,47.84626,-54.09684
2020-05-11 16:19:01+00:00,328.5612,4.65,14.32,47.84626,-54.09684
2020-05-11 16:29:01+00:00,322.9797,4.8,14.32,47.84626,-54.09684
2020-05-11 16:39:01+00:00,321.2013,4.8,14.32,47.84626,-54.09684
2020-05-11 16:49:01+00:00,318.3996,4.8,14.32,47.84626,-54.09684
2020-05-11 16:59:01+00:00,309.1647,4.83,14.32,47.84626,-54.09684
2020-05-11 17:09:01+00:00,300.9747,4.8,14.32,47.84626,-54.09684
2020-05-11 17:19:01+00:00,298.8564,4.8,14.32,47.84626,-54.09684
2020-05-11 17:29:01+00:00,290.8097,4.8,14.32,47.84626,-54.09684
2020-05-11 17:39:01+00:00,277.6597,4.8,14.32,47.84626,-54.09684
2020-05-11 17:49:01+00:00,271.8881,4.87,14.32,47.84626,-54.09684
2020-05-11 17:59:01+00:00,268.1064,4.85,14.32,47.84626,-54.09684
2020-05-11 18:09:01+00:00,254.6198,4.87,14.32,47.84626,-54.09684
2020-05-11 18:19:01+00:00,242.2531,4.87,14.16,47.84626,-54.09684
2020-05-11 18:29:01+00:00,238.7281,4.9,14.16,47.84626,-54.09684
2020-05-11 18:39:01+00:00,233.5314,4.9,14.16,47.84626,-54.09684
2020-05-11 18:49:01+00:00,220.0148,4.9,14.16,47.84626,-54.09684
2020-05-11 18:59:01+00:00,212.6031,4.9,14.16,47.84626,-54.09684
2020-05-11 19:09:01+00:00,214.3315,4.8,14.16,47.84626,-54.09684
2020-05-11 19:19:01+00:00,208.9315,4.8,14.0,47.84626,-54.09684
2020-05-11 19:29:01+00:00,199.0064,4.8,14.0,47.84626,-54.09684
2020-05-11 19:39:01+00:00,198.3598,4.84,14.0,47.84626,-54.09684
2020-05-11 19:49:01+00:00,200.4814,4.94,14.0,47.84626,-54.09684
2020-05-11 19:59:01+00:00,197.2181,5.14,14.0,47.84626,-54.09684
2020-05-11 20:09:01+00:00,195.3931,5.2,14.0,47.84626,-54.09684
2020-05-11 20:19:01+00:00,199.9381,5.19,13.92,47.84626,-54.09684
2020-05-11 20:29:01+00:00,201.9081,5.34,13.92,47.84626,-54.09684
2020-05-11 20:39:01+00:00,200.6598,5.57,13.92,47.84626,-54.09684
2020-05-11 20:49:01+00:00,202.8898,5.6,13.92,47.84626,-54.09684
2020-05-11 20:59:01+00:00,205.4681,5.6,13.92,47.84626,-54.09684
2020-05-11 21:09:01+00:00,207.4731,5.66,13.92,47.84626,-54.09684
2020-05-11 21:19:01+00:00,210.1781,5.76,13.84,47.84626,-54.09684
2020-05-11 21:29:01+00:00,210.9014,5.82,13.84,47.84626,-54.09684
2020-05-11 21:39:01+00:00,212.2664,5.89,13.84,47.84626,-54.09684
2020-05-11 21:49:01+00:00,216.8748,5.9,13.84,47.84626,-54.09684
2020-05-11 21:59:01+00:00,222.1598,5.9,13.84,47.84626,-54.09684
2020-05-11 22:09:01+00:00,225.1764,5.9,13.84,47.84626,-54.09684
2020-05-11 22:19:01+00:00,225.8065,5.97,13.6,47.84626,-54.09684
2020-05-11 22:29:01+00:00,231.4181,5.9,13.6,47.84626,-54.09684
2020-05-11 22:39:01+00:00,236.6131,5.77,13.6,47.84626,-54.09684
2020-05-11 22:49:01+00:00,234.7165,5.8,13.6,47.84626,-54.09684
2020-05-11 22:59:01+00:00,234.3881,5.8,13.6,47.84626,-54.09684
2020-05-11 23:09:01+00:00,241.7314,5.81,13.6,47.84626,-54.09684
2020-05-11 23:19:01+00:00,246.4614,5.9,13.21,47.84626,-54.09684
2020-05-11 23:29:01+00:00,246.3881,5.9,13.21,47.84626,-54.09684
2020-05-11 23:39:01+00:00,250.9297,5.83,13.21,47.84626,-54.09684
2020-05-11 23:49:01+00:00,260.3031,5.6,13.21,47.84626,-54.09684
2020-05-11 23:59:01+00:00,262.4764,5.44,13.21,47.84626,-54.09684
